When you browse on this site, cookies collect data to enhance your experience and personalize the content and advertising you see.
Visit our Privacy Policy to learn more. By continuing to use the site, you agree to this use of cookies and data.
  • In Schweiz
  • Länderverzeichnis
  • Für 7 Tage
  • Wassertemperatur
  • Satellitenkarten
  • Wetterkarte
  • Widgets
  • user-avatar
    Anmelden

    Stündliche Wetter Lubango

    Heute, 23 März, Samstag

    Zeit Temperatur Niederschläge Wind Luftdruck Luftfeuchtigkeit
    00:00 +19°C° 0.4 mm 1 m/S 607 mmHg 69%
    01:00 +19°C° 0.4 mm 1 m/S 607 mmHg 71%
    02:00 +19°C° 0.4 mm 1 m/S 607 mmHg 73%
    03:00 +17°C° 0.4 mm 2 m/S 607 mmHg 74%
    04:00 +17°C° 0.4 mm 2 m/S 607 mmHg 76%
    05:00 +17°C° 0.6 mm 2 m/S 607 mmHg 76%
    06:00 +19°C° 0.6 mm 1 m/S 607 mmHg 76%
    07:00 +19°C° 0.6 mm 1 m/S 608 mmHg 77%
    08:00 +22°C° 0 mm 1 m/S 609 mmHg 66%
    09:00 +25°C° 0 mm 1 m/S 610 mmHg 55%
    10:00 +27°C° 0 mm 1 m/S 612 mmHg 44%
    11:00 +28°C° 0 mm 2 m/S 611 mmHg 44%
    12:00 +28°C° 0 mm 2 m/S 611 mmHg 43%
    13:00 +28°C° 0 mm 2 m/S 610 mmHg 42%
    14:00 +27°C° 0.4 mm 2 m/S 610 mmHg 48%
    15:00 +25°C° 0.4 mm 1 m/S 609 mmHg 53%
    16:00 +24°C° 0.4 mm 1 m/S 608 mmHg 59%
    17:00 +22°C° 0.5 mm 1 m/S 608 mmHg 66%
    18:00 +20°C° 0.5 mm 2 m/S 608 mmHg 74%
    19:00 +19°C° 0.5 mm 2 m/S 608 mmHg 82%
    20:00 +18°C° 2 mm 2 m/S 608 mmHg 84%
    21:00 +17°C° 2 mm 2 m/S 608 mmHg 86%
    22:00 +16°C° 2 mm 1 m/S 609 mmHg 88%
    23:00 +16°C° 0.7 mm 1 m/S 609 mmHg 84%

    Morgen, 24 März, Sonntag

    Zeit Temperatur Niederschläge Wind Luftdruck Luftfeuchtigkeit
    00:00 +18°C° 0.7 mm 1 m/S 608 mmHg 80%
    01:00 +18°C° 0.7 mm 1 m/S 608 mmHg 77%
    02:00 +18°C° 0.5 mm 1 m/S 608 mmHg 77%
    03:00 +18°C° 0.5 mm 1 m/S 608 mmHg 77%
    04:00 +18°C° 0.5 mm 1 m/S 608 mmHg 77%
    05:00 +18°C° 0.1 mm 1 m/S 608 mmHg 76%
    06:00 +18°C° 0.1 mm 1 m/S 608 mmHg 75%
    07:00 +19°C° 0.1 mm 1 m/S 608 mmHg 74%
    08:00 +20°C° 0 mm 1 m/S 609 mmHg 68%
    09:00 +22°C° 0 mm 1 m/S 610 mmHg 62%
    10:00 +24°C° 0 mm 1 m/S 611 mmHg 56%
    11:00 +25°C° 0.2 mm 1 m/S 611 mmHg 53%
    12:00 +26°C° 0.2 mm 1 m/S 611 mmHg 49%
    13:00 +27°C° 0.2 mm 1 m/S 610 mmHg 46%
    14:00 +26°C° 0 mm 1 m/S 610 mmHg 49%
    15:00 +25°C° 0 mm 1 m/S 609 mmHg 53%
    16:00 +24°C° 0 mm 1 m/S 608 mmHg 56%
    17:00 +23°C° 0.1 mm 1 m/S 608 mmHg 61%
    18:00 +22°C° 0.1 mm 1 m/S 608 mmHg 67%
    19:00 +21°C° 0.1 mm 1 m/S 608 mmHg 72%
    20:00 +20°C° 0 mm 1 m/S 608 mmHg 75%
    21:00 +19°C° 0 mm 1 m/S 608 mmHg 78%
    22:00 +19°C° 0 mm 1 m/S 609 mmHg 81%
    23:00 +19°C° 0 mm 1 m/S 608 mmHg 83%

    übermorgen, 25 März, Montag

    Zeit Temperatur Niederschläge Wind Luftdruck Luftfeuchtigkeit
    00:00 +18°C° 0 mm 1 m/S 608 mmHg 85%
    01:00 +18°C° 0 mm 1 m/S 608 mmHg 86%
    02:00 +18°C° 0 mm 1 m/S 608 mmHg 86%
    03:00 +18°C° 0 mm 1 m/S 607 mmHg 85%
    04:00 +18°C° 0 mm 1 m/S 607 mmHg 84%
    05:00 +18°C° 0 mm 1 m/S 607 mmHg 80%
    06:00 +19°C° 0 mm 1 m/S 608 mmHg 77%
    07:00 +19°C° 0 mm 1 m/S 608 mmHg 73%
    08:00 +22°C° 0 mm 1 m/S 609 mmHg 62%
    09:00 +25°C° 0 mm 1 m/S 611 mmHg 51%
    10:00 +27°C° 0 mm 1 m/S 612 mmHg 40%
    11:00 +28°C° 0 mm 1 m/S 611 mmHg 39%
    12:00 +28°C° 0 mm 1 m/S 611 mmHg 38%
    13:00 +29°C° 0 mm 1 m/S 610 mmHg 37%
    14:00 +27°C° 0.1 mm 1 m/S 609 mmHg 44%
    15:00 +25°C° 0.1 mm 1 m/S 608 mmHg 51%
    16:00 +23°C° 0.1 mm 1 m/S 607 mmHg 58%
    17:00 +22°C° 0 mm 1 m/S 607 mmHg 64%
    18:00 +20°C° 0 mm 1 m/S 607 mmHg 69%
    19:00 +19°C° 0 mm 1 m/S 607 mmHg 74%
    20:00 +19°C° 0.3 mm 1 m/S 607 mmHg 79%
    21:00 +18°C° 0.3 mm 1 m/S 608 mmHg 83%
    22:00 +18°C° 0.3 mm 1 m/S 608 mmHg 87%
    23:00 +16°C° 0.3 mm 1 m/S 608 mmHg 87%

    26 März, Dienstag

    Zeit Temperatur Niederschläge Wind Luftdruck Luftfeuchtigkeit
    00:00 +16°C° 0.3 mm 1 m/S 608 mmHg 88%
    01:00 +16°C° 0.3 mm 1 m/S 607 mmHg 88%
    02:00 +16°C° 0.7 mm 1 m/S 607 mmHg 85%
    03:00 +16°C° 0.7 mm 1 m/S 607 mmHg 82%
    04:00 +16°C° 0.7 mm 1 m/S 607 mmHg 79%
    05:00 +16°C° 0.3 mm 1 m/S 607 mmHg 77%
    06:00 +18°C° 0.3 mm 1 m/S 608 mmHg 75%
    07:00 +19°C° 0.3 mm 1 m/S 608 mmHg 73%
    08:00 +21°C° 0 mm 1 m/S 609 mmHg 63%
    09:00 +24°C° 0 mm 1 m/S 611 mmHg 52%
    10:00 +27°C° 0 mm 1 m/S 612 mmHg 42%
    11:00 +27°C° 0 mm 1 m/S 611 mmHg 43%
    12:00 +27°C° 0 mm 1 m/S 610 mmHg 44%
    13:00 +27°C° 0 mm 1 m/S 610 mmHg 45%
    14:00 +26°C° 0 mm 1 m/S 609 mmHg 50%
    15:00 +25°C° 0 mm 1 m/S 608 mmHg 55%
    16:00 +21°C° 0 mm 0 m/S 607 mmHg 59%
    17:00 +20°C° 0 mm 0 m/S 607 mmHg 64%
    18:00 +19°C° 0 mm 0 m/S 607 mmHg 69%
    19:00 +17°C° 0 mm 0 m/S 608 mmHg 73%
    20:00 +17°C° 0.3 mm 0 m/S 608 mmHg 78%
    21:00 +16°C° 0.3 mm 0 m/S 608 mmHg 82%
    22:00 +15°C° 0.3 mm 0 m/S 608 mmHg 86%
    23:00 +15°C° 0.4 mm 0 m/S 608 mmHg 86%

    27 März, Mittwoch

    Zeit Temperatur Niederschläge Wind Luftdruck Luftfeuchtigkeit
    00:00 +16°C° 0.4 mm 1 m/S 608 mmHg 86%
    01:00 +16°C° 0.4 mm 1 m/S 608 mmHg 86%
    02:00 +16°C° 0 mm 1 m/S 607 mmHg 84%
    03:00 +16°C° 0 mm 1 m/S 607 mmHg 82%
    04:00 +15°C° 0 mm 0 m/S 607 mmHg 80%
    05:00 +16°C° 0.1 mm 1 m/S 608 mmHg 78%
    06:00 +18°C° 0.1 mm 1 m/S 608 mmHg 77%
    07:00 +18°C° 0.1 mm 1 m/S 609 mmHg 75%
    08:00 +21°C° 0.3 mm 1 m/S 610 mmHg 67%
    09:00 +24°C° 0.3 mm 2 m/S 612 mmHg 58%
    10:00 +26°C° 0.3 mm 2 m/S 613 mmHg 49%
    11:00 +26°C° 0.4 mm 2 m/S 612 mmHg 49%
    12:00 +27°C° 0.4 mm 2 m/S 611 mmHg 48%
    13:00 +27°C° 0.4 mm 2 m/S 611 mmHg 47%
    14:00 +26°C° 0.5 mm 1 m/S 610 mmHg 51%
    15:00 +25°C° 0.5 mm 1 m/S 609 mmHg 56%
    16:00 +23°C° 0.5 mm 1 m/S 609 mmHg 60%
    17:00 +22°C° 1.2 mm 1 m/S 609 mmHg 65%
    18:00 +19°C° 1.2 mm 0 m/S 609 mmHg 69%
    19:00 +18°C° 1.2 mm 0 m/S 609 mmHg 74%
    20:00 +20°C° 0.4 mm 1 m/S 609 mmHg 77%
    21:00 +19°C° 0.4 mm 1 m/S 609 mmHg 79%
    22:00 +19°C° 0.4 mm 1 m/S 610 mmHg 82%
    23:00 +19°C° 0.1 mm 1 m/S 609 mmHg 80%

    28 März, Donnerstag

    Zeit Temperatur Niederschläge Wind Luftdruck Luftfeuchtigkeit
    00:00 +19°C° 0.1 mm 1 m/S 609 mmHg 79%
    01:00 +19°C° 0.1 mm 1 m/S 609 mmHg 78%
    02:00 +19°C° 0.4 mm 1 m/S 609 mmHg 77%
    03:00 +19°C° 0.4 mm 1 m/S 609 mmHg 76%
    04:00 +19°C° 0.4 mm 1 m/S 609 mmHg 75%
    05:00 +19°C° 0.4 mm 1 m/S 609 mmHg 75%
    06:00 +19°C° 0.4 mm 1 m/S 609 mmHg 75%
    07:00 +19°C° 0.4 mm 1 m/S 610 mmHg 74%
    08:00 +21°C° 0 mm 2 m/S 610 mmHg 66%
    09:00 +24°C° 0 mm 2 m/S 611 mmHg 58%
    10:00 +26°C° 0 mm 3 m/S 612 mmHg 49%
    11:00 +27°C° 0 mm 3 m/S 612 mmHg 46%
    12:00 +28°C° 0 mm 3 m/S 611 mmHg 43%
    13:00 +29°C° 0 mm 3 m/S 611 mmHg 39%
    14:00 +28°C° 0.1 mm 2 m/S 610 mmHg 43%
    15:00 +27°C° 0.1 mm 2 m/S 609 mmHg 46%
    16:00 +25°C° 0.1 mm 1 m/S 609 mmHg 49%
    17:00 +24°C° 0.1 mm 1 m/S 609 mmHg 53%
    18:00 +23°C° 0.1 mm 1 m/S 609 mmHg 57%
    19:00 +21°C° 0.1 mm 1 m/S 608 mmHg 61%
    20:00 +21°C° 0.3 mm 1 m/S 609 mmHg 65%
    21:00 +20°C° 0.3 mm 1 m/S 609 mmHg 70%
    22:00 +19°C° 0.3 mm 1 m/S 609 mmHg 74%
    23:00 +19°C° 1.1 mm 1 m/S 609 mmHg 77%
    Mehr zeigen